FW2460 Weather Reports


Display with metric or nautical units.
time (UTC)temp
F
wind
direction
speed
MPH
gust
MPH
rain 1hr
in
rain 24hr
in
rain mn
in
humidity
%
barometer
mb
20260510081556 66 61 12.0 18.0 0.00 0.00 0.00 54 1007.0
20260510080059 67 40 12.0 19.0 0.00 0.00 0.00 53 1007.1
20260510074602 68 28 13.0 19.0 0.00 0.00 0.00 52 1007.1
20260510073048 68 49 9.0 11.0 0.00 0.00 0.00 51 1007.0
20260510071554 69 205 0.0 3.0 0.00 0.00 0.00 49 1006.7
20260510070042 70 307 7.0 10.0 0.00 0.00 0.00 49 1007.3
20260510064554 70 5 8.0 14.0 0.00 0.00 0.00 48 1007.3
20260510063037 71 26 6.0 16.0 0.00 0.00 0.00 47 1007.0
20260510061537 70 21 8.0 10.0 0.00 0.00 0.00 46 1006.8
20260510060034 70 18 4.0 6.0 0.00 0.00 0.00 47 1006.4
20260510054627 70 94 3.0 6.0 0.00 0.00 0.00 45 1005.9
20260510053025 70 97 4.0 16.0 0.00 0.00 0.00 45 1005.7
20260510051528 71 75 4.0 9.0 0.00 0.00 0.00 44 1005.4
20260510050018 72 25 8.0 11.0 0.00 0.00 0.00 41 1005.0
20260510044521 73 21 10.0 13.0 0.00 0.00 0.00 36 1005.0
20260510043008 74 14 10.0 13.0 0.00 0.00 0.00 27 1004.9
20260510041503 77 26 10.0 12.0 0.00 0.00 0.00 17 1004.9
20260510040100 79 56 6.0 11.0 0.00 0.00 0.00 13 1005.1
20260510034555 83 51 9.0 16.0 0.00 0.00 0.00 2 1005.4
20260510033050 77 293 10.0 16.0 0.00 0.00 0.00 1 1005.7
20260510031546 74 235 3.0 6.0 0.00 0.00 0.00 2 1004.8
20260510030048 76 174 6.0 8.0 0.00 0.00 0.00 1 1004.5
20260510024549 81 289 2.0 5.0 0.00 0.00 0.00 1 1004.1
20260510023033 83 306 3.0 5.0 0.00 0.00 0.00 1 1003.8
20260510021533 85 327 4.0 6.0 0.00 0.00 0.00 1 1003.6
20260510020030 86 327 6.0 10.0 0.00 0.00 0.00 1 1003.4
20260510014529 86 325 9.0 10.0 0.00 0.00 0.00 1 1003.3
20260510013023 86 326 7.0 9.0 0.00 0.00 0.00 1 1003.2
20260510011531 87 311 7.0 9.0 0.00 0.00 0.00 1 1003.1
20260510010014 90 302 9.0 14.0 0.00 0.00 0.00 1 1003.0
20260510004509 92 298 9.0 17.0 0.00 0.00 0.00 1 1002.9
20260510003005 92 266 14.0 19.0 0.00 0.00 0.00 1 1002.9
20260510001501 93 288 16.0 32.0 0.00 0.00 0.00 1 1002.7
20260510000117 93 284 16.0 26.0 0.00 0.00 0.00 1 1002.8
20260509234603 94 250 15.0 25.0 0.00 0.00 0.00 1 1002.8
20260509233047 94 264 16.0 25.0 0.00 0.00 0.00 1 1002.9
20260509231543 94 265 14.0 32.0 0.00 0.00 0.00 1 1002.9
20260509230039 95 307 17.0 32.0 0.00 0.00 0.00 1 1002.8
20260509224534 94 288 17.0 33.0 0.00 0.00 0.00 1 1003.2
20260509223030 94 262 13.0 25.0 0.00 0.00 0.00 1 1003.3
20260509221537 93 252 16.0 30.0 0.00 0.00 0.00 1 1003.5
20260509220021 92 246 14.0 23.0 0.00 0.00 0.00 1 1003.4
20260509214517 92 178 16.0 29.0 0.00 0.00 0.00 1 1003.7
20260509213012 92 190 8.0 25.0 0.00 0.00 0.00 1 1003.7
20260509211508 93 248 15.0 30.0 0.00 0.00 0.00 1 1004.0
20260509210004 92 194 27.0 37.0 0.00 0.00 0.00 1 1004.1
20260509204602 92 223 27.0 37.0 0.00 0.00 0.00 1 1004.6
20260509203058 92 184 21.0 34.0 0.00 0.00 0.00 1 1005.4
20260509201550 92 242 26.0 37.0 0.00 0.00 0.00 2 1005.3
20260509200046 91 199 21.0 38.0 0.00 0.00 0.00 3 1005.9
20260509194541 91 248 16.0 23.0 0.00 0.00 0.00 3 1006.1
20260509193045 90 241 14.0 32.0 0.00 0.00 0.00 5 1006.5
20260509191552 89 215 14.0 35.0 0.00 0.00 0.00 5 1006.6
20260509190045 89 159 18.0 37.0 0.00 0.00 0.00 6 1006.7
20260509184536 89 184 18.0 29.0 0.00 0.00 0.00 7 1007.2
20260509183038 88 213 17.0 35.0 0.00 0.00 0.00 8 1007.3
20260509181527 87 244 12.0 28.0 0.00 0.00 0.00 9 1007.7
20260509180023 86 269 14.0 28.0 0.00 0.00 0.00 10 1008.1
20260509174523 85 203 14.0 27.0 0.00 0.00 0.00 13 1008.4
20260509173017 84 184 20.0 25.0 0.00 0.00 0.00 14 1008.5
20260509171512 83 191 14.0 29.0 0.00 0.00 0.00 17 1008.6
20260509170016 82 244 13.0 24.0 0.00 0.00 0.00 22 1008.8
20260509164506 81 175 17.0 29.0 0.00 0.00 0.00 25 1008.9
20260509163003 79 196 15.0 23.0 0.00 0.00 0.00 31 1009.2
20260509161501 78 161 17.0 22.0 0.00 0.00 0.00 33 1009.3
20260509160059 76 178 14.0 21.0 0.00 0.00 0.00 37 1009.3
20260509154558 75 178 13.0 19.0 0.00 0.00 0.00 40 1009.1
20260509153053 74 173 10.0 16.0 0.00 0.00 0.00 44 1009.3
20260509151552 72 167 8.0 13.0 0.00 0.00 0.00 53 1009.6
20260509150045 70 161 10.0 17.0 0.00 0.00 0.00 56 1009.7
20260509144547 68 180 9.0 12.0 0.00 0.00 0.00 64 1009.7
20260509143040 64 164 6.0 11.0 0.00 0.00 0.00 72 1009.9
20260509141545 61 197 7.0 13.0 0.00 0.00 0.00 74 1010.0
20260509140038 60 155 10.0 14.0 0.00 0.00 0.00 74 1010.3
20260509134549 60 185 7.0 12.0 0.00 0.00 0.00 74 1010.1
20260509133037 60 185 7.0 11.0 0.00 0.00 0.00 73 1010.0
20260509131552 59 174 10.0 15.0 0.00 0.00 0.00 73 1010.0
20260509130046 59 174 9.0 15.0 0.00 0.00 0.00 73 1009.7
20260509124539 59 167 9.0 14.0 0.00 0.00 0.00 72 1009.6
20260509123032 58 179 9.0 14.0 0.00 0.00 0.00 71 1009.5
20260509121531 57 163 7.0 11.0 0.00 0.00 0.00 70 1009.2
20260509120027 55 177 9.0 12.0 0.00 0.00 0.00 67 1009.3
20260509114524 56 162 8.0 10.0 0.00 0.00 0.00 66 1009.2
20260509113021 56 153 7.0 9.0 0.00 0.00 0.00 63 1009.1
20260509111519 57 155 7.0 8.0 0.00 0.00 0.00 63 1009.1
20260509110023 57 157 8.0 9.0 0.00 0.00 0.00 62 1009.1
20260509104516 57 154 7.0 8.0 0.00 0.00 0.00 61 1009.1
20260509103013 58 157 7.0 9.0 0.00 0.00 0.00 61 1009.2
20260509101519 59 134 7.0 8.0 0.00 0.00 0.00 61 1009.3
20260509100010 58 148 8.0 10.0 0.00 0.00 0.00 60 1009.5
20260509094505 59 166 6.0 7.0 0.00 0.00 0.00 60 1009.6
20260509093014 59 158 3.0 5.0 0.00 0.00 0.00 61 1009.7
20260509091507 59 147 2.0 7.0 0.00 0.00 0.00 61 1009.8
20260509090002 59 130 4.0 7.0 0.00 0.00 0.00 60 1009.8
20260509084609 60 128 7.0 9.0 0.00 0.00 0.00 58 1009.8